Location: Blackpool
(53.8200°N, 3.0410°W)
Time: 23:07:27
(UTC+01:00)

N. Korean satellite - Visible Passes

Search period start: 16 October 2017 00:00
Search period end: 26 October 2017 00:00
Orbit: 459 x 517 km, 97.2° (Epoch: 16 October)

Date Brightness Start Highest point End Pass type
(mag) Time Alt. Az. Time Alt. Az. Time Alt. Az.
16 Oct 6.5 18:57:49 10° SSE 19:01:23 84° ENE 19:04:54 10° NNW visible
16 Oct 10.2 20:34:43 10° W 20:35:26 10° W 20:36:09 10° WNW visible
17 Oct 9.6 20:09:24 10° SW 20:11:51 18° W 20:14:18 10° NW visible
18 Oct 8.7 19:45:13 10° SSW 19:48:21 29° W 19:51:28 10° NNW visible
19 Oct 9.9 07:06:31 10° NE 07:08:34 15° E 07:10:36 10° SE visible
19 Oct 7.4 19:21:28 10° S 19:24:55 52° W 19:28:21 10° NNW visible
20 Oct 6.4 18:58:01 10° SSE 19:01:32 85° ENE 19:05:02 10° NNW visible
20 Oct 10.2 20:35:10 10° W 20:35:36 10° W 20:36:03 10° W visible
21 Oct 6.7 18:34:52 10° SE 18:38:13 46° ENE 18:41:35 10° N visible
21 Oct 9.6 20:09:37 10° SW 20:12:01 17° W 20:14:24 10° NW visible
22 Oct 8.7 19:45:24 10° SSW 19:48:29 29° W 19:51:34 10° NNW visible
23 Oct 9.9 07:06:35 10° NE 07:08:41 15° E 07:10:48 10° SE visible
23 Oct 7.4 19:21:37 10° S 19:25:01 51° W 19:28:26 10° NNW visible
24 Oct 6.4 18:58:08 10° SSE 19:01:37 85° ENE 19:05:06 10° NNW visible
25 Oct 6.7 18:34:57 10° SE 18:38:17 46° ENE 18:41:38 10° N visible
25 Oct 9.6 20:09:44 10° SW 20:12:05 17° W 20:14:26 10° NW visible
